Location: Rounton
(54.4000°N, 1.3500°W)
Time: 17:52:15
(UTC+00:00)

Tiros 1 despin weight - Pass Details

Date: 30 November 2021
Orbit: 592 x 641 km, 48.2° (Epoch: 21 January)

Event Time Altitude Azimuth Distance (km) Brightness Sun altitude
Rises 19:20:29 0° 270° (W) 2,828 ? -30.0°
Reaches altitude 10° 19:23:07 10° 256° (WSW) 1,928 ? -30.4°
Enters shadow 19:25:32 21° 225° (SW) 1,356 ? -30.7°
